Hourly Data Report for October 08, 2014

All times are specified in Local Standard Time (LST). Add 1 hour to adjust for Daylight Saving Time where and when it is observed.

ARVIAT A
NUNAVUT

61°05'38.000" N
94°04'18.000" W
10.40 m
2300427
71174
YEK

Download Data

Hourly Data (October 2014)
Hourly Data Report for October 8, 2014
Temp Definition
°C
Dew Point Temp Definition
°C
Rel Hum Definition
%
Wind Dir Definition
10's deg

Wind Spd Definition
km/h
Visibility Definition
km
Stn Press Definition
kPa
Hmdx Definition


Wind Chill Definition


Weather Definition


TIME
00:00 Legend Double Dagger 3.3 2.9 97 4 26 8.1 101.30     Rain,Fog
01:00 Legend Double Dagger 3.1 2.7 97 3 28 9.7 101.33     Rain,Fog
02:00 Legend Double Dagger 3.1 2.5 96 4 30 11.3 101.37     LegendNANA
03:00 Legend Double Dagger 3.0 2.6 97 4 34 14.5 101.39     LegendNANA
04:00 Legend Double Dagger 2.5 2.2 98 3 39 16.1 101.43     LegendNANA
05:00 Legend Double Dagger 2.3 2.0 98 3 32 11.3 101.50     LegendNANA
06:00 Legend Double Dagger 1.9 1.8 99 2 34 4.8 101.54     Fog
07:00 Legend Double Dagger 1.1 1.1 100 1 34 1.2 101.58     Rain,Fog
08:00 Legend Double Dagger -0.3 -0.3 100 1 34 2.4 101.63   -7 Fog
09:00 Legend Double Dagger 0.0 -0.1 99 36 34 3.6 101.63   -7 Fog
10:00 Legend Double Dagger 0.1 -0.1 99 36 32 4.8 101.61     Fog
11:00 Legend Double Dagger 0.7 0.4 98 36 30 16.1 101.60     LegendNANA
12:00 Legend Double Dagger 1.4 0.4 93 1 32 16.1 101.59     LegendNANA
13:00 Legend Double Dagger 1.6 0.4 92 36 30 16.1 101.60     LegendNANA
14:00 Legend Double Dagger 1.4 1.1 98 36 30 4.8 101.58     Fog
15:00 Legend Double Dagger 1.5 0.9 96 36 30 16.1 101.59     LegendNANA
16:00 Legend Double Dagger 1.6 1.3 98 36 26 6.4 101.60     Fog
17:00 Legend Double Dagger 1.3 1.2 99 36 35 2.8 101.61     Rain,Fog
18:00 Legend Double Dagger 1.2 1.2 100 1 26 2.4 101.64     Rain,Fog
19:00 Legend Double Dagger 1.6 1.5 99 1 26 2.8 101.68     Rain,Fog
20:00 Legend Double Dagger 2.3 2.2 99 3 30 2.8 101.71     Fog
21:00 Legend Double Dagger 2.6 1.6 93 4 30 8.1 101.74     Fog
22:00 Legend Double Dagger 2.4 1.3 93 4 32 9.7 101.77     Fog
23:00 Legend Double Dagger 2.4 1.1 91 4 34 11.3 101.79     LegendNANA

Notes on Data Quality.

Legend

  • E = Estimated
  • M = Missing
  • NA = Not Available
  • ‡ = Partner data that is not subject to review by the National Climate Archives
Date modified: